Location: Bailen
(14.1842°N, 120.7958°E)
Time: 16:22:21
(UTC+00:00)

Lacrosse 4 Rocket - Pass Details

Date: 23 April 2026
Orbit: 506 x 567 km, 68.0° (Epoch: 14 May)

Event Time Altitude Azimuth Distance (km) Brightness Sun altitude
Exits shadow 21:07:36 10° 245° (WSW) 1,724 3.2 -8.1°
Reaches altitude 10° 21:07:38 10° 246° (WSW) 1,715 3.2 -8.1°
Maximum altitude 21:10:25 19° 293° (WNW) 1,248 2.7 -7.4°
Drops below altitude 10° 21:13:13 10° 340° (NNW) 1,732 3.8 -6.8°
Sets 21:15:52 0° 358° (N) 2,629 5.0 -6.1°
